Overview Statistics Trail Chart Weather Telemetry Raw packets
 

This is the latest recevied weather packets stored in our database for station/object W8RSN-13. If no packets are shown the sender has not sent any weather packets the latest 10 day(s).

<< 56 57 58 59 60 61 62 >>
Time Temp. Humidity Pressure Rain* Wind** Luminosity Snow
1788300268 32.22° C 21% 1015.3 hPa - - - -
1788299966 32.22° C 21% 1015.5 hPa - - - -
1788299365 32.22° C 27% 1015.4 hPa - - - -
1788299064 31.67° C 26% 1015.6 hPa - - - -
1788298763 31.67° C 24% 1015.3 hPa - - - -
1788298462 32.22° C 23% 1015.5 hPa - - - -
1788298161 32.22° C 23% 1015.6 hPa - - - -
1788297861 31.11° C 27% 1015.5 hPa - - - -
1788297560 30.56° C 32% 1015.7 hPa - - - -
1788297259 30.56° C 30% 1015.7 hPa - - - -
1788296958 30.56° C 30% 1015.8 hPa - - - -
1788296666 30.56° C 29% 1015.9 hPa - - - -
1788296356 30.56° C 28% 1016.1 hPa - - - -
1788296075 30.56° C 28% 1016.2 hPa - - - -
1788295774 30° C 28% 1015.9 hPa - - - -
1788295474 30° C 28% 1016.1 hPa - - - -
1788295172 30.56° C 29% 1016.2 hPa - - - -
1788294871 30.56° C 29% 1016.3 hPa - - - -
1788294571 30° C 30% 1016.3 hPa - - - -
1788294270 29.44° C 31% 1016.4 hPa - - - -
1788293969 29.44° C 31% 1016.2 hPa - - - -
1788293668 30° C 31% 1016.5 hPa - - - -
1788293367 30° C 33% 1016.6 hPa - - - -
1788293066 29.44° C 35% 1016.7 hPa - - - -
1788292766 28.89° C 37% 1016.9 hPa - - - -

* Rain since midnight (hover to see other rain measurements)
** Current wind speed in m/s (hover to see current wind gust speed)